This is the latest recevied weather packets stored in our database for station/object W1RCY. If no packets are shown the sender has not sent any weather packets the latest 10 day(s).
| Time | Temp. | Humidity | Pressure | Rain* | Wind** | Luminosity | Snow |
|---|---|---|---|---|---|---|---|
| 1777916639 | 20° C | 38% | 1004.2 hPa | 0 mm | - | 232 W/m² | - |
| 1777916335 | 19.44° C | 38% | 1004.3 hPa | 0 mm | - | 837 W/m² | - |
| 1777916032 | 18.89° C | 39% | 1004.5 hPa | 0 mm | - | 263 W/m² | - |
| 1777915729 | 18.89° C | 41% | 1004.5 hPa | 0 mm | - | 465 W/m² | - |
| 1777915426 | 18.33° C | 40% | 1004.4 hPa | 0 mm | - | 317 W/m² | - |
| 1777915121 | 18.33° C | 41% | 1004.7 hPa | 0 mm | - | 972 W/m² | - |
| 1777914819 | 18.33° C | 40% | 1004.6 hPa | 0 mm | - | 497 W/m² | - |
| 1777914516 | 18.33° C | 40% | 1004.5 hPa | 0 mm | - | 824 W/m² | - |
| 1777914212 | 18.89° C | 39% | 1004.5 hPa | 0 mm | - | 880 W/m² | - |
| 1777913909 | 18.89° C | 38% | 1004.3 hPa | 0 mm | - | 285 W/m² | - |
| 1777913606 | 18.89° C | 41% | 1004.6 hPa | 0 mm | - | 344 W/m² | - |
| 1777913302 | 17.78° C | 41% | 1004.6 hPa | 0 mm | - | 302 W/m² | - |
| 1777912999 | 17.78° C | 39% | 1004.6 hPa | 0 mm | - | 258 W/m² | - |
| 1777912695 | 17.78° C | 40% | 1004.6 hPa | 0 mm | - | 234 W/m² | - |
| 1777912391 | 17.78° C | 39% | 1004.7 hPa | 0 mm | - | 267 W/m² | - |
| 1777912088 | 17.78° C | 40% | 1004.5 hPa | 0 mm | - | 630 W/m² | - |
| 1777911783 | 17.78° C | 40% | 1004.6 hPa | 0 mm | - | 368 W/m² | - |
| 1777911480 | 17.22° C | 41% | 1004.7 hPa | 0 mm | - | 412 W/m² | - |
| 1777911177 | 17.22° C | 41% | 1005 hPa | 0 mm | - | 268 W/m² | - |
| 1777910875 | 18.33° C | 40% | 1004.6 hPa | 0 mm | - | 248 W/m² | - |
| 1777910571 | 18.33° C | 41% | 1005.2 hPa | 0 mm | - | 890 W/m² | - |
| 1777910269 | 17.78° C | 41% | 1004.8 hPa | 0 mm | - | 752 W/m² | - |
| 1777909965 | 18.33° C | 42% | 1005.1 hPa | 0 mm | - | 737 W/m² | - |
| 1777909662 | 17.22° C | 43% | 1005 hPa | 0 mm | - | 725 W/m² | - |
| 1777909360 | 17.22° C | 43% | 1005.4 hPa | 0 mm | - | 717 W/m² | - |
* Rain latest hour (hover to see other rain measurements)
** Current wind speed in m/s (hover to see current wind gust speed)